Bend, OR

4:12 AM PST on December 06, 2016 (GMT -0800)
Bend Municipal

Weather History for KBDN - April, 2014

Change the Weather History Date:

Thursday, April 17, 2014

  Actual Average (KRDM) Record (KRDM)
Temperature  
Mean Temperature 46 °F 44 °F  
Max Temperature 50 °F 60 °F 82 °F (1999)
Min Temperature 39 °F 29 °F 11 °F (1964)
Degree Days  
Heating Degree Days 20 21  
Month to date heating degree days 371  
Since 1 July heating degree days 5822  
Cooling Degree Days 0 0  
Month to date cooling degree days 0  
Year to date cooling degree days 0  
Moisture  
Dew Point 38 °F    
Average Humidity 72    
Maximum Humidity 93    
Minimum Humidity 58    
Precipitation  
Precipitation 0.05 in 0.02 in 0.43 in (1967)
Month to date precipitation 0.38  
Year to date precipitation 2.66  
Sea Level Pressure  
Sea Level Pressure 29.90 in    
Wind  
Wind Speed 4 mph (WSW)    
Max Wind Speed 18 mph    
Max Gust Speed 22 mph    
Visibility 9 miles    
Events Rain    
T = Trace of Precipitation, MM = Missing Value Source: NWS Daily Summary

Daily Weather History Graph

Daily Weather History Graph

Search for Another Location

Airport or City:

Trip Planner

Search our weather history database for the weather conditions in past years. The results will help you decide how hot, cold, wet, or windy it might be!

Date:

Astronomy

Apr. 17, 2014 Rise Set
Actual Time 6:17 AM PDT 7:51 PM PDT
Civil Twilight 5:47 AM PDT 8:21 PM PDT
Nautical Twilight 5:10 AM PDT 8:58 PM PDT
Astronomical Twilight 4:31 AM PDT 9:38 PM PDT
Moon 10:47 PM PDT (4/17) 7:50 AM PDT (4/17)
Length of Visible Light 14h 34m
Length of Day
13h 33m
Waning Gibbous, 93% of the Moon is Illuminated
Apr 17
Waning Gibbous
Apr 22
Last Quarter
Apr 28
New
May 6
First Quarter
May 14
Full

Hourly Weather History & Observations

Time (PDT) Temp. Windchill Dew Point Humidity Pressure Visibility Wind Dir Wind Speed Gust Speed Precip Events Conditions
12:15 AM 42.8 °F - 35.6 °F 76% 29.99 in 10.0 mi Calm Calm - N/A   Partly Cloudy
12:35 AM 44.6 °F - 35.6 °F 71% 29.99 in 10.0 mi Calm Calm - N/A   Scattered Clouds
12:55 AM 44.6 °F - 35.6 °F 71% 29.99 in 10.0 mi Calm Calm - N/A   Partly Cloudy
1:15 AM 46.4 °F - 35.6 °F 66% 29.98 in 10.0 mi Calm Calm - N/A   Partly Cloudy
1:35 AM 48.2 °F - 35.6 °F 62% 29.98 in 10.0 mi Calm Calm - N/A   Clear
2:15 AM 46.4 °F - 35.6 °F 66% 29.95 in 10.0 mi Calm Calm - N/A   Partly Cloudy
2:35 AM 46.4 °F 44.3 °F 35.6 °F 66% 29.95 in 10.0 mi South 4.6 mph - N/A   Partly Cloudy
2:55 AM 46.4 °F 42.9 °F 37.4 °F 71% 29.95 in 10.0 mi SSW 6.9 mph - N/A   Clear
3:15 AM 44.6 °F - 37.4 °F 76% 29.94 in 10.0 mi Calm Calm - N/A   Clear
3:35 AM 44.6 °F - 35.6 °F 71% 29.93 in 10.0 mi Calm Calm - N/A   Clear
3:55 AM 42.8 °F - 37.4 °F 81% 29.92 in 10.0 mi Calm Calm - N/A   Scattered Clouds
4:15 AM 41.0 °F - 35.6 °F 81% 29.91 in 10.0 mi Calm Calm - N/A   Partly Cloudy
4:35 AM 42.8 °F - 35.6 °F 76% 29.91 in 10.0 mi Calm Calm - N/A   Scattered Clouds
5:15 AM 46.4 °F 42.9 °F 37.4 °F 71% 29.90 in 10.0 mi WSW 6.9 mph - N/A   Clear
5:35 AM 46.4 °F 44.3 °F 37.4 °F 71% 29.90 in 10.0 mi SW 4.6 mph - N/A   Mostly Cloudy
5:55 AM 46.4 °F - 37.4 °F 71% 29.89 in 10.0 mi Calm Calm - N/A   Mostly Cloudy
6:15 AM 44.6 °F - 37.4 °F 76% 29.89 in 10.0 mi Calm Calm - N/A   Mostly Cloudy
6:35 AM 42.8 °F - 37.4 °F 81% 29.89 in 10.0 mi Calm Calm - N/A   Overcast
6:55 AM 44.6 °F - 37.4 °F 76% 29.88 in 10.0 mi Calm Calm - N/A   Overcast
7:15 AM 44.6 °F - 37.4 °F 76% 29.88 in 10.0 mi Calm Calm - N/A   Mostly Cloudy
7:35 AM 44.6 °F - 37.4 °F 76% 29.88 in 10.0 mi Calm Calm - N/A   Scattered Clouds
7:55 AM 44.6 °F - 37.4 °F 76% 29.88 in 10.0 mi Calm Calm - N/A   Mostly Cloudy
8:15 AM 46.4 °F - 37.4 °F 71% 29.88 in 10.0 mi Calm Calm - N/A   Mostly Cloudy
8:35 AM 46.4 °F - 37.4 °F 71% 29.87 in 10.0 mi Calm Calm - N/A   Overcast
8:55 AM 48.2 °F - 37.4 °F 66% 29.87 in 10.0 mi Calm Calm - N/A   Overcast
9:15 AM 48.2 °F - 37.4 °F 66% 29.86 in 10.0 mi Calm Calm - N/A   Overcast
9:35 AM 50.0 °F - 37.4 °F 62% 29.86 in 10.0 mi Calm Calm - N/A   Mostly Cloudy
10:15 AM 50.0 °F - 39.2 °F 66% 29.85 in 10.0 mi WSW 4.6 mph - N/A   Mostly Cloudy
10:35 AM 50.0 °F - 39.2 °F 66% 29.85 in 10.0 mi WNW 5.8 mph - N/A Rain Light Rain
10:55 AM 50.0 °F - 39.2 °F 66% 29.86 in 7.0 mi North 4.6 mph - N/A Rain Light Rain
11:15 AM 48.2 °F - 41.0 °F 76% 29.86 in 9.0 mi NNW 9.2 mph - N/A Rain Light Rain
11:35 AM 46.4 °F 41.9 °F 42.8 °F 87% 29.86 in 7.0 mi NNW 9.2 mph - N/A Rain Light Rain
11:55 AM 46.4 °F 41.5 °F 42.8 °F 87% 29.86 in 6.0 mi NNW 10.4 mph - 0.01 in Rain Light Rain
12:15 PM 46.4 °F 42.4 °F 44.6 °F 93% 29.86 in 7.0 mi North 8.1 mph - N/A Rain Light Rain
12:35 PM 46.4 °F 42.9 °F 42.8 °F 87% 29.86 in 6.0 mi NW 6.9 mph - N/A Rain Light Rain
12:55 PM 46.4 °F 45.2 °F 44.6 °F 93% 29.87 in 5.0 mi North 3.5 mph - 0.02 in Rain Light Rain
1:15 PM 46.4 °F 45.2 °F 44.6 °F 93% 29.87 in 5.0 mi North 3.5 mph - N/A Rain Light Rain
1:35 PM 48.2 °F - 44.6 °F 87% 29.87 in 5.0 mi Calm Calm - 0.01 in Rain Light Rain
1:55 PM 48.2 °F - 44.6 °F 87% 29.87 in 8.0 mi Calm Calm - 0.01 in Rain Light Rain
2:15 PM 48.2 °F - 44.6 °F 87% 29.87 in 5.0 mi NNE 3.5 mph - N/A Rain Light Rain
2:35 PM 48.2 °F - 44.6 °F 87% 29.87 in 4.0 mi Calm Calm - N/A Rain Light Rain
2:55 PM 48.2 °F - 44.6 °F 87% 29.87 in 7.0 mi North 3.5 mph - 0.01 in Rain Light Rain
3:15 PM 48.2 °F - 44.6 °F 87% 29.87 in 10.0 mi SSE 5.8 mph - N/A   Partly Cloudy
3:35 PM 50.0 °F - 41.0 °F 71% 29.87 in 10.0 mi SW 12.7 mph 18.4 mph N/A   Partly Cloudy
3:55 PM 50.0 °F - 39.2 °F 66% 29.87 in 10.0 mi SW 13.8 mph 19.6 mph N/A   Partly Cloudy
4:15 PM 48.2 °F - 37.4 °F 66% 29.87 in 10.0 mi SW 17.3 mph 21.9 mph N/A   Clear
4:35 PM 48.2 °F - 35.6 °F 62% 29.87 in 10.0 mi SW 15.0 mph 20.7 mph N/A   Partly Cloudy
5:15 PM 50.0 °F - 35.6 °F 58% 29.86 in 10.0 mi SW 18.4 mph - N/A   Clear
5:35 PM 50.0 °F - 35.6 °F 58% 29.87 in 10.0 mi SSW 15.0 mph - N/A   Clear
5:55 PM 48.2 °F - 33.8 °F 58% 29.87 in 10.0 mi SW 15.0 mph 21.9 mph N/A   Clear
6:15 PM 48.2 °F - 35.6 °F 62% 29.87 in 10.0 mi SSW 12.7 mph - N/A   Scattered Clouds
6:35 PM 48.2 °F - 33.8 °F 58% 29.88 in 10.0 mi SW 10.4 mph - N/A   Mostly Cloudy
6:55 PM 48.2 °F - 35.6 °F 62% 29.88 in 10.0 mi SW 8.1 mph - N/A   Scattered Clouds
7:15 PM 48.2 °F - 35.6 °F 62% 29.89 in 10.0 mi SW 12.7 mph - N/A   Mostly Cloudy
7:35 PM 48.2 °F - 35.6 °F 62% 29.89 in 10.0 mi SW 9.2 mph - N/A   Mostly Cloudy
8:15 PM 46.4 °F 40.7 °F 35.6 °F 66% 29.89 in 10.0 mi SSW 12.7 mph 18.4 mph N/A   Mostly Cloudy
8:35 PM 46.4 °F 40.4 °F 35.6 °F 66% 29.89 in 10.0 mi SW 13.8 mph - N/A   Scattered Clouds
9:15 PM 46.4 °F 41.1 °F 33.8 °F 62% 29.91 in 10.0 mi SSW 11.5 mph - N/A   Clear
9:35 PM 46.4 °F 41.9 °F 33.8 °F 62% 29.92 in 10.0 mi SW 9.2 mph - N/A   Clear
9:55 PM 44.6 °F 39.7 °F 32.0 °F 61% 29.92 in 10.0 mi SW 9.2 mph - N/A   Clear
10:15 PM 44.6 °F 39.2 °F 33.8 °F 66% 29.92 in 10.0 mi SW 10.4 mph - N/A   Clear
10:35 PM 44.6 °F 37.8 °F 33.8 °F 66% 29.92 in 10.0 mi SW 15.0 mph 18.4 mph N/A   Clear
10:55 PM 44.6 °F 38.8 °F 33.8 °F 66% 29.92 in 10.0 mi SW 11.5 mph - N/A   Clear
11:15 PM 44.6 °F - 33.8 °F 66% 29.93 in 10.0 mi Calm Calm - N/A   Clear
11:35 PM 41.0 °F - 32.0 °F 70% 29.93 in 10.0 mi Calm Calm - N/A   Clear
11:55 PM 39.2 °F 37.0 °F 32.0 °F 75% 29.94 in 10.0 mi West 3.5 mph - N/A   Clear